Year,Month,Day,Hour,Minute,Value (Times are PST for temperature in C)
2013,01,24,08,40,3.30
2013,01,24,08,41,3.30
2013,01,24,08,42,3.30
2013,01,24,08,43,3.30
2013,01,24,08,44,3.30
2013,01,24,08,45,3.30
2013,01,24,08,46,3.30
2013,01,24,08,47,3.30
2013,01,24,08,48,3.30
2013,01,24,08,49,3.30
2013,01,24,08,50,3.30
2013,01,24,08,51,3.30
2013,01,24,08,52,3.30
2013,01,24,08,53,3.30
2013,01,24,08,54,3.30
2013,01,24,08,55,3.30
2013,01,24,08,56,3.30
2013,01,24,08,57,3.30
2013,01,24,08,58,3.30
2013,01,24,08,59,3.30
2013,01,24,09,00,3.30
2013,01,24,09,01,3.30
2013,01,24,09,02,3.30
2013,01,24,09,18,3.10
2013,01,24,09,19,3.10
2013,01,24,09,20,3.10
2013,01,24,09,21,3.10
2013,01,24,09,22,3.10
2013,01,24,09,23,3.10
2013,01,24,09,24,3.20
2013,01,24,09,25,3.20
2013,01,24,09,26,3.20
2013,01,24,09,27,3.20
2013,01,24,09,28,3.20
2013,01,24,09,29,3.20
2013,01,24,09,30,3.10
2013,01,24,09,31,3.10
2013,01,24,09,32,3.10
2013,01,24,09,33,3.10
2013,01,24,09,34,3.10
2013,01,24,09,35,3.10
2013,01,24,09,36,3.10
2013,01,24,09,37,3.10
2013,01,24,09,38,3.10
2013,01,24,09,39,3.10
2013,01,24,09,40,3.00
2013,01,24,09,41,3.00
2013,01,24,09,42,3.00
2013,01,24,09,43,3.00
2013,01,24,09,44,3.00
2013,01,24,09,45,3.00
2013,01,24,09,46,3.00
2013,01,24,09,47,3.00
2013,01,24,09,48,3.10
2013,01,24,09,49,3.10
2013,01,24,09,50,3.10
2013,01,24,09,51,3.10
2013,01,24,09,52,3.10
2013,01,24,09,53,3.00
2013,01,24,09,54,3.00
2013,01,24,09,55,3.00
2013,01,24,09,56,3.00
2013,01,24,09,57,3.00
2013,01,24,09,58,3.00
2013,01,24,09,59,3.00
2013,01,24,10,00,3.00
2013,01,24,10,01,3.00
2013,01,24,10,02,3.00
2013,01,24,10,03,3.00
2013,01,24,10,04,3.00
2013,01,24,10,05,3.00
2013,01,24,10,06,2.90
2013,01,24,10,07,2.90
2013,01,24,10,08,2.90
2013,01,24,10,09,2.90
2013,01,24,10,10,2.90
2013,01,24,10,11,2.90
2013,01,24,10,12,2.90
2013,01,24,10,13,3.00
2013,01,24,10,14,3.00
2013,01,24,10,15,3.00
2013,01,24,10,16,3.00
2013,01,24,10,17,3.10
2013,01,24,10,18,3.10
2013,01,24,10,19,3.10
2013,01,24,10,20,3.20
2013,01,24,10,21,3.20
2013,01,24,10,22,3.20
2013,01,24,10,23,3.20
2013,01,24,10,24,3.20
2013,01,24,10,25,3.20
2013,01,24,10,26,3.20
2013,01,24,10,27,3.20
2013,01,24,10,28,3.20
2013,01,24,10,29,3.20
2013,01,24,10,30,3.20
2013,01,24,10,31,3.20
2013,01,24,10,32,3.20
2013,01,24,10,33,3.20
2013,01,24,10,34,3.20
2013,01,24,10,35,3.20
2013,01,24,10,36,3.30
2013,01,24,10,37,3.30
2013,01,24,10,38,3.30
2013,01,24,10,39,3.30
2013,01,24,10,40,3.30
2013,01,24,10,41,3.30
2013,01,24,10,42,3.40
2013,01,24,10,43,3.40
2013,01,24,10,44,3.40
2013,01,24,10,45,3.40
2013,01,24,10,46,3.40
2013,01,24,10,47,3.40
2013,01,24,10,48,3.40
2013,01,24,10,49,3.40
2013,01,24,10,50,3.40
2013,01,24,10,51,3.50
2013,01,24,10,52,3.50
2013,01,24,10,53,3.50
2013,01,24,10,54,3.50
2013,01,24,10,55,3.50
2013,01,24,10,56,3.60
2013,01,24,10,57,3.60
2013,01,24,10,58,3.60
2013,01,24,10,59,3.60
2013,01,24,11,00,3.60
2013,01,24,11,01,3.60
2013,01,24,11,02,3.60
2013,01,24,11,03,3.60
2013,01,24,11,04,3.60
2013,01,24,11,05,3.60
2013,01,24,11,06,3.70
2013,01,24,11,07,3.70
2013,01,24,11,08,3.70
2013,01,24,11,09,3.70
2013,01,24,11,10,3.70
2013,01,24,11,11,3.70
2013,01,24,11,12,3.70
2013,01,24,11,13,3.80
2013,01,24,11,14,3.80
2013,01,24,11,15,3.80
2013,01,24,11,16,3.80
2013,01,24,11,17,3.80
2013,01,24,11,18,3.80
2013,01,24,11,19,3.90
2013,01,24,11,20,3.90
2013,01,24,11,21,3.90
2013,01,24,11,22,4.00
2013,01,24,11,23,4.00
2013,01,24,11,24,4.00
2013,01,24,11,25,4.10
2013,01,24,11,26,4.10
2013,01,24,11,27,4.10
2013,01,24,11,28,4.10
2013,01,24,11,29,4.10
2013,01,24,11,30,4.10
2013,01,24,11,31,4.20
2013,01,24,11,32,4.20
2013,01,24,11,33,4.20
2013,01,24,11,34,4.20
2013,01,24,11,35,4.20
2013,01,24,11,36,4.20
2013,01,24,11,37,4.20
2013,01,24,11,38,4.30
2013,01,24,11,39,4.30
2013,01,24,11,40,4.30
2013,01,24,11,41,4.30
2013,01,24,11,42,4.30
2013,01,24,11,43,4.20
2013,01,24,11,44,4.20
2013,01,24,11,45,4.20
2013,01,24,11,46,4.20
2013,01,24,11,47,4.10
2013,01,24,11,48,4.10
2013,01,24,11,49,4.10
2013,01,24,11,50,4.10
2013,01,24,11,51,4.10
2013,01,24,11,52,4.10
2013,01,24,11,53,4.10
2013,01,24,11,54,4.10
2013,01,24,11,55,4.10
2013,01,24,11,56,4.10
2013,01,24,11,57,4.10
2013,01,24,11,58,4.10
2013,01,24,11,59,4.10
2013,01,24,12,00,4.10
2013,01,24,12,01,4.10
2013,01,24,12,02,4.00
2013,01,24,12,03,4.00
2013,01,24,12,04,4.00
2013,01,24,12,05,4.00
2013,01,24,12,06,4.00
2013,01,24,12,07,4.00
2013,01,24,12,08,4.00
2013,01,24,12,09,4.00
2013,01,24,12,10,4.10
2013,01,24,12,11,4.10
2013,01,24,12,12,4.10
2013,01,24,12,13,4.10
2013,01,24,12,14,4.10
2013,01,24,12,15,4.20
2013,01,24,12,16,4.20
2013,01,24,12,17,4.20
2013,01,24,12,18,4.20
2013,01,24,12,19,4.20
2013,01,24,12,20,4.20
2013,01,24,12,21,4.30
2013,01,24,12,22,4.30
2013,01,24,12,23,4.30
2013,01,24,12,24,4.30
2013,01,24,12,25,4.30
2013,01,24,12,26,4.30
2013,01,24,12,27,4.30
2013,01,24,12,28,4.30
2013,01,24,12,29,4.30
2013,01,24,12,30,4.30
2013,01,24,12,31,4.30
2013,01,24,12,32,4.30
2013,01,24,12,33,4.40
2013,01,24,12,34,4.40
2013,01,24,12,35,4.30
2013,01,24,12,36,4.40
2013,01,24,12,37,4.40
2013,01,24,12,38,4.40
2013,01,24,12,39,4.40
2013,01,24,12,40,4.40
2013,01,24,12,41,4.40
2013,01,24,12,42,4.40
2013,01,24,12,43,4.40
2013,01,24,12,44,4.40
2013,01,24,12,45,4.40
2013,01,24,12,46,4.40
2013,01,24,12,47,4.40
2013,01,24,12,48,4.40
2013,01,24,12,49,4.40
2013,01,24,12,50,4.50
2013,01,24,12,51,4.50
2013,01,24,12,52,4.50
2013,01,24,12,53,4.50
2013,01,24,12,54,4.60
2013,01,24,12,55,4.60
2013,01,24,12,56,4.60
2013,01,24,12,57,4.60
2013,01,24,12,58,4.60
2013,01,24,12,59,4.60
2013,01,24,13,00,4.60
2013,01,24,13,01,4.60
2013,01,24,13,02,4.60
2013,01,24,13,03,4.60
2013,01,24,13,04,4.60
2013,01,24,13,05,4.60
2013,01,24,13,06,4.60
2013,01,24,13,07,4.60
2013,01,24,13,08,4.70
2013,01,24,13,09,4.70
2013,01,24,13,10,4.70
2013,01,24,13,11,4.70
2013,01,24,13,12,4.70
2013,01,24,13,13,4.70
2013,01,24,13,14,4.70
2013,01,24,13,15,4.70
2013,01,24,13,16,4.80
2013,01,24,13,17,4.80
2013,01,24,13,18,4.80
2013,01,24,13,19,4.80
2013,01,24,13,20,4.80
2013,01,24,13,21,4.80
2013,01,24,13,22,4.80
2013,01,24,13,23,4.80
2013,01,24,13,24,4.80
2013,01,24,13,25,4.80
2013,01,24,13,26,4.80
2013,01,24,13,27,4.80
2013,01,24,13,28,4.80
2013,01,24,13,29,4.80
2013,01,24,13,30,4.80
2013,01,24,13,31,4.80
2013,01,24,13,32,4.80
2013,01,24,13,33,4.80
2013,01,24,13,34,4.80
2013,01,24,13,35,4.80
2013,01,24,13,36,4.70
2013,01,24,13,37,4.70
2013,01,24,13,38,4.70
2013,01,24,13,39,4.70
2013,01,24,13,40,4.70
2013,01,24,13,41,4.70
2013,01,24,13,42,4.70
2013,01,24,13,43,4.70
2013,01,24,13,44,4.70
2013,01,24,13,45,4.70
